Flag for U.S.A. Weather past 2 weeks in Ontario, Oregon, U.S.A.

Now
41 °F

More clouds than sun.


Feels Like: 41 °F
Forecast: 33 / 44 °F
Wind: No wind

Location: Ontario Municipal Airport

Current Time: Dec 17, 2014 at 3:04:15 PM

Latest Report: Dec 17, 2014 at 1:53 PM


Visibility: 10 mi

Pressure: 30.03 "Hg

Humidity: 74%

Dew point: 33 °F

Location of OntarioLocation

Historic Weather in Ontario — Graph

°F

Ontario temperature yesterday

Maximum temperature yesterday: 43 °F (at 1:53 PM)
Minimum temperature yesterday: 36 °F (at 12:53 AM)
Average temperature yesterday: 39 °F

Past Weeks' High & Low Weather Summary

 TemperatureHumidityPressure
High54 °F (Dec 11, 12:53 PM)97% (Dec 3, 10:53 AM)30.43 "Hg (Dec 3, 10:53 AM)
Low24 °F (Dec 15, 7:53 AM)44% (Dec 14, 2:53 PM)29.59 "Hg (Dec 11, 4:53 PM)
Average39 °F84%30.10 "Hg
* Reported Dec 2 1:53 PM — Dec 17 1:53 PM, Ontario, Weather by CustomWeather, © 2014

Note: Actual official high and low records may vary slightly from our data, if they occured in-between our weather recording intervals... More about our weather records

Advertising

Ontario weather history for previous 24 hours

 ConditionsComfort  
Time TempWeatherWind HumidityBarometerVisibility
1:53 PM
Dec 17
41 °FMore clouds than sun.No wind74%30.03 "Hg10 mi
12:53 PM40 °FMore clouds than sun.No wind77%30.05 "Hg10 mi
11:53 AM39 °FOvercast.5 mph79%30.06 "Hg10 mi
10:53 AM38 °FOvercast.5 mph83%30.09 "Hg10 mi
9:53 AM34 °FFog.No wind92%30.07 "Hg3 mi
8:53 AM33 °FFog.No wind92%30.07 "Hg4 mi
7:53 AM34 °FFog.3 mph88%30.06 "Hg6 mi
6:53 AM32 °FIce fog.3 mph92%30.06 "Hg5 mi
5:53 AM33 °FOvercast.No wind92%30.04 "Hg7 mi
4:53 AM32 °FClear.No wind88%30.04 "Hg7 mi
3:53 AM34 °FPassing clouds.3 mph88%30.04 "Hg9 mi
2:53 AM36 °FClear.5 mph85%30.05 "Hg10 mi
1:53 AM38 °FMostly cloudy.No wind83%30.04 "Hg10 mi
12:53 AM38 °FMostly cloudy.5 mph90%30.05 "Hg10 mi
11:53 PM
Dec 16
38 °FMostly cloudy.5 mph90%30.06 "Hg10 mi
10:53 PM37 °FPassing clouds.3 mph93%30.05 "Hg10 mi
9:53 PM39 °FOvercast.No wind89%30.06 "Hg10 mi
8:53 PM39 °FMostly cloudy.5 mph89%30.05 "Hg10 mi
8:02 PM39 °FMostly cloudy.8 mph89%30.01 "Hg10 mi
7:53 PM40 °FMostly cloudy.3 mph83%30.05 "Hg10 mi
6:53 PM42 °FOvercast.No wind76%30.04 "Hg10 mi
5:53 PM42 °FMostly cloudy.5 mph79%30.03 "Hg10 mi
4:53 PM43 °FOvercast.6 mph76%30.01 "Hg10 mi
3:53 PM43 °FOvercast.6 mph74%30.01 "Hg10 mi
Weather by CustomWeather, © 2014

See weather overviewHow to use our weather pages